Location: Mascot Post Office (historical)
(40.2645°N, 99.5462°W)
Time: 10:36:28
(UTC+00:00)

NOSS 3-4 (C) - Pass Details

Date: 26 October 2020
Orbit: 886 x 1326 km, 63.4° (Epoch: 06 November)

Event Time Altitude Azimuth Distance (km) Brightness Sun altitude
Rises 02:12:38 0° 330° (NNW) 3,813 7.1 -29.1°
Reaches altitude 10° 02:15:24 10° 338° (NNW) 2,922 6.3 -29.6°
Enters shadow 02:20:22 35° 20° (NNE) 1,767 4.7 -30.5°
